TimeCDT,TemperatureF,Dew PointF,Humidity,Sea Level PressureIn,VisibilityMPH,Wind Direction,Wind SpeedMPH,Gust SpeedMPH,PrecipitationIn,Events,Conditions,WindDirDegrees,DateUTC
12:33 AM,42.8,39.2,87,29.74,5.0,East,5.8,-,0.05,Rain,Light Rain,80,2013-04-08 05:33:00
12:53 AM,42.1,39.9,92,29.76,3.0,ENE,5.8,-,0.07,Rain,Rain,70,2013-04-08 05:53:00
1:10 AM,42.8,39.2,87,29.73,2.5,ENE,4.6,-,0.04,Rain,Rain,60,2013-04-08 06:10:00
1:27 AM,42.8,39.2,87,29.73,2.0,NNE,5.8,-,0.10,Rain,Rain,30,2013-04-08 06:27:00
1:46 AM,42.8,39.2,87,29.72,1.8,North,6.9,-,0.16,Rain,Rain,360,2013-04-08 06:46:00
1:53 AM,42.1,39.9,92,29.74,1.5,NNE,8.1,-,0.19,Rain,Rain,20,2013-04-08 06:53:00
2:04 AM,42.8,39.2,87,29.71,1.5,NNE,6.9,-,0.05,Rain,Rain,20,2013-04-08 07:04:00
2:30 AM,42.8,41.0,93,29.71,2.0,North,5.8,-,0.18,Rain,Rain,10,2013-04-08 07:30:00
2:53 AM,42.1,39.9,92,29.73,2.0,NE,6.9,-,0.24,Rain,Rain,50,2013-04-08 07:53:00
3:00 AM,42.8,39.2,87,29.70,1.8,NE,6.9,-,0.01,Rain,Light Rain,50,2013-04-08 08:00:00
3:09 AM,42.8,39.2,87,29.70,2.0,ENE,9.2,-,0.02,Rain,Light Rain,70,2013-04-08 08:09:00
3:18 AM,42.8,39.2,87,29.70,1.5,NE,5.8,-,0.05,Rain,Rain,40,2013-04-08 08:18:00
3:40 AM,42.8,39.2,87,29.69,2.0,ENE,8.1,-,0.08,Rain,Light Rain,60,2013-04-08 08:40:00
3:50 AM,42.8,41.0,93,29.70,2.0,NE,5.8,-,0.09,Rain,Light Rain,50,2013-04-08 08:50:00
3:53 AM,42.1,41.0,96,29.71,2.0,ENE,6.9,-,0.10,Rain,Light Rain,60,2013-04-08 08:53:00
4:01 AM,42.8,41.0,93,29.69,1.8,East,9.2,-,0.02,Rain,Light Rain,80,2013-04-08 09:01:00
4:09 AM,42.8,41.0,93,29.69,2.0,East,8.1,-,0.03,Rain,Light Rain,80,2013-04-08 09:09:00
4:19 AM,42.8,41.0,93,29.69,1.8,ENE,8.1,-,0.06,Rain,Rain,70,2013-04-08 09:19:00
4:42 AM,42.8,41.0,93,29.68,2.5,East,6.9,-,0.08,Rain,Light Rain,90,2013-04-08 09:42:00
4:53 AM,42.1,41.0,96,29.68,2.5,ENE,9.2,-,0.08,Rain,Light Rain,70,2013-04-08 09:53:00
5:53 AM,42.1,41.0,96,29.67,2.0,NE,8.1,-,0.01,,Overcast,40,2013-04-08 10:53:00
6:28 AM,42.8,41.0,93,29.66,2.5,ENE,5.8,-,N/A,,Overcast,60,2013-04-08 11:28:00
6:53 AM,42.1,41.0,96,29.69,2.5,NE,4.6,-,N/A,,Overcast,50,2013-04-08 11:53:00
7:25 AM,42.8,39.2,87,29.69,2.0,East,8.1,-,N/A,,Overcast,80,2013-04-08 12:25:00
7:32 AM,42.8,39.2,87,29.70,2.5,East,6.9,-,N/A,,Overcast,80,2013-04-08 12:32:00
7:39 AM,42.8,39.2,87,29.70,3.0,East,9.2,-,N/A,,Overcast,90,2013-04-08 12:39:00
7:53 AM,42.1,39.9,92,29.72,4.0,ENE,4.6,-,N/A,,Overcast,70,2013-04-08 12:53:00
8:44 AM,42.8,39.2,87,29.72,4.0,NE,4.6,-,N/A,,Overcast,50,2013-04-08 13:44:00
8:53 AM,42.1,39.0,89,29.74,4.0,ENE,4.6,-,N/A,,Overcast,60,2013-04-08 13:53:00
9:16 AM,42.8,39.2,87,29.72,3.0,ENE,3.5,-,N/A,,Overcast,70,2013-04-08 14:16:00
9:53 AM,43.0,39.9,89,29.75,3.0,NNE,5.8,-,N/A,,Overcast,30,2013-04-08 14:53:00
10:53 AM,44.1,39.9,85,29.77,3.0,ENE,3.5,-,N/A,,Overcast,60,2013-04-08 15:53:00
11:51 AM,44.6,41.0,87,29.76,2.5,Variable,4.6,-,N/A,,Overcast,0,2013-04-08 16:51:00
11:53 AM,45.0,41.0,86,29.78,2.5,NE,5.8,-,N/A,,Overcast,40,2013-04-08 16:53:00
12:19 PM,44.6,39.2,81,29.77,3.0,NE,4.6,-,N/A,,Haze,40,2013-04-08 17:19:00
12:53 PM,45.0,39.9,82,29.80,3.0,NNE,4.6,-,N/A,,Haze,20,2013-04-08 17:53:00
1:35 PM,46.4,41.0,81,29.80,4.0,NNE,4.6,-,N/A,,Haze,30,2013-04-08 18:35:00
1:53 PM,46.0,41.0,83,29.81,4.0,North,8.1,-,N/A,,Haze,360,2013-04-08 18:53:00
2:53 PM,46.0,39.9,79,29.82,5.0,NNE,6.9,-,N/A,,Haze,20,2013-04-08 19:53:00
3:53 PM,46.0,39.9,79,29.82,6.0,NE,9.2,-,N/A,,Haze,50,2013-04-08 20:53:00
4:53 PM,46.9,39.9,77,29.85,8.0,NNE,8.1,-,N/A,,Overcast,20,2013-04-08 21:53:00
5:53 PM,46.0,39.0,76,29.88,9.0,North,10.4,-,N/A,,Overcast,10,2013-04-08 22:53:00
6:53 PM,44.1,39.0,82,29.93,10.0,North,10.4,-,N/A,,Overcast,360,2013-04-08 23:53:00
7:53 PM,43.0,37.9,82,29.98,10.0,North,9.2,-,N/A,,Overcast,360,2013-04-09 00:53:00
8:53 PM,42.1,37.9,85,29.99,10.0,NNE,9.2,-,N/A,,Overcast,30,2013-04-09 01:53:00
9:53 PM,42.1,37.0,82,30.01,10.0,NE,11.5,16.1,N/A,,Overcast,50,2013-04-09 02:53:00
10:42 PM,41.0,37.4,87,30.01,10.0,NE,6.9,-,N/A,,Overcast,40,2013-04-09 03:42:00
10:53 PM,42.1,36.0,79,30.04,10.0,NE,5.8,-,N/A,,Overcast,40,2013-04-09 03:53:00
11:53 PM,41.0,35.1,79,30.03,10.0,NNE,11.5,-,N/A,,Overcast,30,2013-04-09 04:53:00